| time (UTC) | temp F | wind direction | speed knots | gust knots | rain 1hr in | rain 24hr in | rain mn in | humidity % | barometer mb |
| 20260905182636 | 77 | 102 | 5.2 | 9.6 | 0.00 | 0.00 | 0.00 | 82 | 1018.0 |
| 20260905182131 | 77 | 151 | 3.5 | 6.1 | 0.00 | 0.00 | 0.00 | 81 | 1018.1 |
| 20260905181626 | 76 | 99 | 6.1 | 7.8 | 0.00 | 0.00 | 0.00 | 82 | 1018.0 |
| 20260905181125 | 76 | 93 | 6.1 | 7.0 | 0.00 | 0.00 | 0.00 | 82 | 1018.2 |
| 20260905180620 | 75 | 97 | 2.6 | 7.0 | 0.00 | 0.00 | 0.00 | 82 | 1018.4 |
| 20260905180116 | 75 | 94 | 2.6 | 7.0 | 0.00 | 0.00 | 0.00 | 84 | 1018.5 |
| 20260905175615 | 77 | 89 | 5.2 | 9.6 | 0.00 | 0.00 | 0.00 | 81 | 1018.9 |
| 20260905175110 | 75 | 127 | 5.2 | 6.1 | 0.00 | 0.00 | 0.00 | 81 | 1019.0 |
| 20260905174605 | 75 | 70 | 5.2 | 7.0 | 0.00 | 0.00 | 0.00 | 83 | 1018.8 |
| 20260905174101 | 75 | 114 | 3.5 | 6.1 | 0.00 | 0.00 | 0.00 | 82 | 1019.3 |
| 20260905173557 | 74 | 84 | 6.1 | 7.0 | 0.00 | 0.00 | 0.00 | 83 | 1019.3 |
| 20260905173052 | 74 | 88 | 5.2 | 8.7 | 0.00 | 0.00 | 0.00 | 85 | 1019.3 |
| 20260905172551 | 74 | 106 | 4.3 | 7.0 | 0.00 | 0.00 | 0.00 | 83 | 1019.4 |
| 20260905172047 | 73 | 85 | 3.5 | 7.0 | 0.00 | 0.00 | 0.00 | 85 | 1019.3 |
| 20260905171543 | 72 | 164 | 1.7 | 7.0 | 0.00 | 0.00 | 0.00 | 86 | 1019.3 |
| 20260905171038 | 73 | 98 | 1.7 | 3.5 | 0.00 | 0.00 | 0.00 | 85 | 1019.5 |
| 20260905170535 | 72 | 202 | 0.9 | 6.1 | 0.00 | 0.00 | 0.00 | 87 | 1019.6 |
| 20260905170030 | 71 | 218 | 0.9 | 3.5 | 0.00 | 0.00 | 0.00 | 88 | 1019.3 |
| 20260905165525 | 71 | 55 | 2.6 | 5.2 | 0.00 | 0.00 | 0.00 | 87 | 1019.3 |
| 20260905165020 | 71 | 215 | 1.7 | 3.5 | 0.00 | 0.00 | 0.00 | 88 | 1019.3 |
| 20260905164519 | 70 | 112 | 1.7 | 3.5 | 0.00 | 0.00 | 0.00 | 88 | 1019.2 |
| 20260905164014 | 70 | 105 | 4.3 | 6.1 | 0.00 | 0.00 | 0.00 | 89 | 1019.3 |
| 20260905163510 | 70 | 67 | 3.5 | 7.8 | 0.00 | 0.00 | 0.00 | 90 | 1019.1 |
| 20260905163006 | 70 | 94 | 3.5 | 7.0 | 0.00 | 0.00 | 0.00 | 90 | 1019.4 |
| 20260905162501 | 70 | 79 | 3.5 | 6.1 | 0.00 | 0.00 | 0.00 | 89 | 1019.2 |
| 20260905161956 | 70 | 94 | 3.5 | 7.0 | 0.00 | 0.00 | 0.00 | 88 | 1019.1 |
| 20260905161456 | 69 | 95 | 1.7 | 5.2 | 0.00 | 0.00 | 0.00 | 89 | 1019.2 |
| 20260905160954 | 69 | 116 | 3.5 | 7.0 | 0.00 | 0.00 | 0.00 | 91 | 1019.1 |
| 20260905160448 | 69 | 89 | 1.7 | 7.0 | 0.00 | 0.00 | 0.00 | 91 | 1019.2 |
| 20260905155947 | 69 | 81 | 1.7 | 2.6 | 0.00 | 0.00 | 0.00 | 90 | 1019.3 |
| 20260905155442 | 69 | 118 | 3.5 | 3.5 | 0.00 | 0.00 | 0.00 | 90 | 1019.2 |
| 20260905154941 | 68 | 77 | 1.7 | 2.6 | 0.00 | 0.00 | 0.00 | 91 | 1019.2 |
| 20260905154436 | 68 | 53 | 3.5 | 6.1 | 0.00 | 0.00 | 0.00 | 92 | 1019.2 |
| 20260905153932 | 67 | 96 | 3.5 | 6.1 | 0.00 | 0.00 | 0.00 | 92 | 1019.1 |
| 20260905153428 | 67 | 116 | 1.7 | 7.8 | 0.00 | 0.00 | 0.00 | 93 | 1019.2 |
| 20260905152927 | 67 | 106 | 2.6 | 3.5 | 0.00 | 0.00 | 0.00 | 93 | 1019.2 |
| 20260905152427 | 67 | 69 | 3.5 | 3.5 | 0.00 | 0.00 | 0.00 | 93 | 1019.2 |
| 20260905151922 | 67 | 65 | 2.6 | 6.1 | 0.00 | 0.00 | 0.00 | 93 | 1019.3 |
| 20260905151413 | 68 | 227 | 0.9 | 7.0 | 0.00 | 0.00 | 0.00 | 92 | 1019.2 |
| 20260905150912 | 68 | 232 | 1.7 | 3.5 | 0.00 | 0.00 | 0.00 | 91 | 1019.2 |
| 20260905150407 | 67 | 103 | 3.5 | 6.1 | 0.00 | 0.00 | 0.00 | 92 | 1019.2 |
| 20260905145903 | 67 | 94 | 4.3 | 9.6 | 0.00 | 0.00 | 0.00 | 93 | 1019.3 |
| 20260905145358 | 66 | 85 | 1.7 | 3.5 | 0.00 | 0.00 | 0.00 | 94 | 1019.0 |
| 20260905144857 | 66 | 59 | 3.5 | 8.7 | 0.00 | 0.00 | 0.00 | 95 | 1018.9 |
| 20260905144353 | 66 | 44 | 2.6 | 5.2 | 0.00 | 0.00 | 0.00 | 95 | 1018.9 |
| 20260905143852 | 66 | 61 | 1.7 | 2.6 | 0.00 | 0.00 | 0.00 | 96 | 1019.5 |
| 20260905143346 | 65 | 169 | 1.7 | 5.2 | 0.00 | 0.00 | 0.00 | 96 | 1019.4 |
| 20260905142845 | 65 | 104 | 1.7 | 2.6 | 0.00 | 0.00 | 0.00 | 98 | 1019.6 |
| 20260905142343 | 64 | 63 | 3.5 | 6.1 | 0.00 | 0.00 | 0.00 | 98 | 1019.6 |
| 20260905141840 | 64 | 141 | 1.7 | 3.5 | 0.00 | 0.00 | 0.00 | 99 | 1019.6 |
| 20260905141335 | 64 | 122 | 1.7 | 3.5 | 0.00 | 0.00 | 0.00 | 99 | 1019.6 |
| 20260905140831 | 64 | 179 | 0.9 | 3.5 | 0.00 | 0.00 | 0.00 | 99 | 1019.5 |
| 20260905140325 | 64 | 107 | 1.7 | 8.7 | 0.00 | 0.00 | 0.00 | 99 | 1019.6 |
| 20260905135824 | 64 | 62 | 4.3 | 5.2 | 0.00 | 0.00 | 0.00 | 99 | 1019.6 |
| 20260905135320 | 64 | 70 | 1.7 | 5.2 | 0.00 | 0.00 | 0.00 | 99 | 1019.6 |
| 20260905134816 | 63 | 108 | 3.5 | 3.5 | 0.00 | 0.00 | 0.00 | 99 | 1019.4 |
| 20260905134314 | 63 | 98 | 3.5 | 5.2 | 0.00 | 0.00 | 0.00 | 99 | 1019.2 |
| 20260905133808 | 63 | 95 | 2.6 | 5.2 | 0.00 | 0.00 | 0.00 | 99 | 1019.4 |
| 20260905133304 | 63 | 87 | 1.7 | 2.6 | 0.00 | 0.00 | 0.00 | 99 | 1019.6 |
| 20260905132803 | 63 | 109 | 2.6 | 3.5 | 0.00 | 0.00 | 0.00 | 99 | 1019.5 |
| 20260905132258 | 63 | 80 | 1.7 | 1.7 | 0.00 | 0.00 | 0.00 | 99 | 1019.6 |
| 20260905131753 | 63 | 231 | 0.0 | 1.7 | 0.00 | 0.00 | 0.00 | 99 | 1019.6 |
| 20260905131248 | 63 | 92 | 3.5 | 6.1 | 0.00 | 0.00 | 0.00 | 99 | 1019.3 |
| 20260905130743 | 63 | 169 | 0.9 | 2.6 | 0.00 | 0.00 | 0.00 | 99 | 1019.1 |
| 20260905130242 | 63 | 122 | 3.5 | 6.1 | 0.00 | 0.00 | 0.00 | 99 | 1019.0 |
| 20260905125738 | 63 | 69 | 1.7 | 3.5 | 0.00 | 0.00 | 0.00 | 99 | 1018.8 |
| 20260905125233 | 63 | 145 | 2.6 | 3.5 | 0.00 | 0.00 | 0.00 | 99 | 1018.6 |
| 20260905124729 | 63 | 181 | 0.0 | 2.6 | 0.00 | 0.00 | 0.00 | 99 | 1018.7 |
| 20260905124225 | 62 | 158 | 1.7 | 5.2 | 0.00 | 0.00 | 0.00 | 99 | 1018.6 |
| 20260905123720 | 62 | 111 | 0.9 | 5.2 | 0.00 | 0.00 | 0.00 | 99 | 1018.4 |
| 20260905123217 | 62 | 222 | 0.9 | 3.5 | 0.00 | 0.00 | 0.00 | 99 | 1018.4 |
| 20260905122716 | 62 | 83 | 2.6 | 2.6 | 0.00 | 0.00 | 0.00 | 99 | 1018.4 |
| 20260905122211 | 62 | 119 | 0.9 | 3.5 | 0.00 | 0.00 | 0.00 | 99 | 1018.2 |
| 20260905121706 | 62 | 140 | 0.9 | 1.7 | 0.00 | 0.00 | 0.00 | 99 | 1018.1 |
| 20260905121203 | 62 | 90 | 1.7 | 3.5 | 0.00 | 0.00 | 0.00 | 99 | 1018.0 |
| 20260905120701 | 62 | 113 | 1.7 | 3.5 | 0.00 | 0.00 | 0.00 | 99 | 1018.1 |
| 20260905120155 | 62 | 125 | 1.7 | 5.2 | 0.00 | 0.00 | 0.00 | 99 | 1017.9 |
| 20260905115650 | 62 | 110 | 2.6 | 5.2 | 0.00 | 0.00 | 0.00 | 99 | 1018.1 |
| 20260905115145 | 62 | 128 | 0.0 | 1.7 | 0.00 | 0.00 | 0.00 | 99 | 1018.0 |
| 20260905114644 | 62 | 74 | 3.5 | 3.5 | 0.00 | 0.00 | 0.00 | 99 | 1017.9 |
| 20260905114143 | 62 | 46 | 1.7 | 2.6 | 0.00 | 0.00 | 0.00 | 99 | 1017.9 |
| 20260905113637 | 62 | 123 | 1.7 | 3.5 | 0.00 | 0.00 | 0.00 | 99 | 1018.2 |
| 20260905113133 | 62 | 161 | 0.9 | 3.5 | 0.00 | 0.00 | 0.00 | 99 | 1018.1 |
| 20260905112627 | 62 | 84 | 2.6 | 2.6 | 0.00 | 0.00 | 0.00 | 99 | 1018.0 |
| 20260905112123 | 62 | 127 | 0.0 | 0.9 | 0.00 | 0.00 | 0.00 | 99 | 1018.0 |
| 20260905111618 | 62 | 218 | 0.0 | 1.7 | 0.00 | 0.00 | 0.00 | 99 | 1017.9 |
| 20260905111117 | 62 | 183 | 0.0 | 2.6 | 0.00 | 0.00 | 0.00 | 99 | 1018.0 |
| 20260905110616 | 62 | 102 | 1.7 | 3.5 | 0.00 | 0.00 | 0.00 | 99 | 1018.1 |
| 20260905110111 | 62 | 155 | 0.0 | 5.2 | 0.00 | 0.00 | 0.00 | 99 | 1018.0 |
| 20260905105606 | 62 | 94 | 2.6 | 5.2 | 0.00 | 0.00 | 0.00 | 99 | 1018.1 |
| 20260905105105 | 63 | 100 | 3.5 | 7.0 | 0.00 | 0.00 | 0.00 | 99 | 1017.9 |
| 20260905104601 | 63 | 139 | 0.9 | 5.2 | 0.00 | 0.00 | 0.00 | 99 | 1018.1 |
| 20260905104101 | 63 | 159 | 0.9 | 5.2 | 0.00 | 0.00 | 0.00 | 99 | 1018.0 |
| 20260905103550 | 63 | 103 | 0.9 | 2.6 | 0.00 | 0.00 | 0.00 | 99 | 1017.8 |
| 20260905103047 | 63 | 71 | 0.9 | 6.1 | 0.00 | 0.00 | 0.00 | 99 | 1017.7 |
| 20260905102542 | 63 | 100 | 0.9 | 2.6 | 0.00 | 0.00 | 0.00 | 99 | 1017.9 |
| 20260905102039 | 63 | 119 | 0.9 | 1.7 | 0.00 | 0.00 | 0.00 | 99 | 1017.8 |
| 20260905101537 | 63 | 162 | 0.0 | 0.9 | 0.00 | 0.00 | 0.00 | 99 | 1017.7 |
| 20260905101035 | 63 | 187 | 0.0 | 1.7 | 0.00 | 0.00 | 0.00 | 99 | 1017.8 |
| 20260905100532 | 63 | 98 | 1.7 | 7.0 | 0.00 | 0.00 | 0.00 | 99 | 1017.7 |
| 20260905100031 | 63 | 125 | 1.7 | 2.6 | 0.00 | 0.00 | 0.00 | 99 | 1017.5 |
| 20260905095526 | 63 | 81 | 2.6 | 3.5 | 0.00 | 0.00 | 0.00 | 99 | 1017.4 |
| 20260905095021 | 63 | 102 | 1.7 | 5.2 | 0.00 | 0.00 | 0.00 | 99 | 1017.6 |
| 20260905094516 | 63 | 90 | 0.9 | 1.7 | 0.00 | 0.00 | 0.00 | 99 | 1017.6 |
| 20260905094015 | 63 | 329 | 0.0 | 3.5 | 0.00 | 0.00 | 0.00 | 99 | 1017.1 |
| 20260905093509 | 63 | 71 | 1.7 | 3.5 | 0.00 | 0.00 | 0.00 | 99 | 1016.6 |
| 20260905093007 | 63 | 83 | 3.5 | 5.2 | 0.00 | 0.00 | 0.00 | 99 | 1016.8 |
| 20260905092501 | 63 | 137 | 1.7 | 5.2 | 0.00 | 0.00 | 0.00 | 99 | 1016.6 |
| 20260905091956 | 63 | 18 | 1.7 | 2.6 | 0.00 | 0.00 | 0.00 | 99 | 1016.5 |
| 20260905091450 | 63 | 87 | 2.6 | 3.5 | 0.00 | 0.00 | 0.00 | 99 | 1016.6 |
| 20260905090950 | 63 | 60 | 2.6 | 3.5 | 0.00 | 0.00 | 0.00 | 99 | 1016.7 |
| 20260905090445 | 63 | 44 | 2.6 | 2.6 | 0.00 | 0.00 | 0.00 | 99 | 1016.5 |
| 20260905085944 | 63 | 86 | 4.3 | 7.0 | 0.00 | 0.00 | 0.00 | 99 | 1016.5 |
| 20260905085444 | 63 | 73 | 1.7 | 3.5 | 0.00 | 0.00 | 0.00 | 99 | 1016.6 |
| 20260905084939 | 64 | 90 | 3.5 | 7.0 | 0.00 | 0.00 | 0.00 | 99 | 1016.7 |
| 20260905084439 | 64 | 346 | 0.9 | 3.5 | 0.00 | 0.00 | 0.00 | 99 | 1016.8 |
| 20260905083933 | 64 | 66 | 5.2 | 7.0 | 0.00 | 0.00 | 0.00 | 99 | 1016.7 |
| 20260905083430 | 64 | 75 | 1.7 | 2.6 | 0.00 | 0.00 | 0.00 | 99 | 1017.0 |
| 20260905082925 | 64 | 122 | 1.7 | 5.2 | 0.00 | 0.00 | 0.00 | 99 | 1017.0 |
| 20260905082421 | 64 | 139 | 0.0 | 0.0 | 0.00 | 0.00 | 0.00 | 99 | 1017.5 |
| 20260905081916 | 64 | 167 | 0.9 | 0.9 | 0.00 | 0.00 | 0.00 | 99 | 1017.5 |
| 20260905081411 | 64 | 99 | 1.7 | 3.5 | 0.00 | 0.00 | 0.00 | 99 | 1017.7 |
| 20260905080910 | 64 | 115 | 3.5 | 5.2 | 0.00 | 0.00 | 0.00 | 99 | 1017.5 |
| 20260905080409 | 64 | 81 | 4.3 | 5.2 | 0.00 | 0.00 | 0.00 | 99 | 1017.6 |
| 20260905075908 | 64 | 106 | 1.7 | 2.6 | 0.00 | 0.00 | 0.00 | 99 | 1017.5 |
| 20260905075403 | 64 | 96 | 0.9 | 6.1 | 0.00 | 0.00 | 0.00 | 99 | 1017.7 |
| 20260905074902 | 64 | 88 | 0.9 | 5.2 | 0.00 | 0.00 | 0.00 | 99 | 1017.6 |
| 20260905074358 | 64 | 134 | 0.9 | 2.6 | 0.00 | 0.00 | 0.00 | 99 | 1017.7 |
| 20260905073854 | 64 | 81 | 3.5 | 6.1 | 0.00 | 0.00 | 0.00 | 99 | 1017.8 |
| 20260905073348 | 64 | 123 | 1.7 | 5.2 | 0.00 | 0.00 | 0.00 | 99 | 1017.9 |
| 20260905072843 | 65 | 57 | 1.7 | 3.5 | 0.00 | 0.00 | 0.00 | 99 | 1017.9 |
| 20260905072339 | 65 | 104 | 1.7 | 5.2 | 0.00 | 0.00 | 0.00 | 99 | 1018.0 |
| 20260905071835 | 65 | 87 | 0.9 | 1.7 | 0.00 | 0.00 | 0.00 | 99 | 1017.9 |
| 20260905071331 | 65 | 111 | 3.5 | 3.5 | 0.00 | 0.00 | 0.00 | 99 | 1018.0 |
| 20260905070826 | 65 | 111 | 3.5 | 6.1 | 0.00 | 0.00 | 0.00 | 99 | 1017.8 |
| 20260905070322 | 65 | 86 | 1.7 | 6.1 | 0.00 | 0.00 | 0.00 | 99 | 1017.7 |
| 20260905065821 | 65 | 293 | 1.7 | 5.2 | 0.00 | 0.00 | 0.00 | 99 | 1018.1 |
| 20260905065319 | 65 | 118 | 2.6 | 6.1 | 0.00 | 0.00 | 0.00 | 99 | 1017.9 |
| 20260905064815 | 65 | 87 | 3.5 | 5.2 | 0.00 | 0.00 | 0.00 | 99 | 1017.9 |
| 20260905064310 | 65 | 99 | 2.6 | 2.6 | 0.00 | 0.00 | 0.00 | 99 | 1017.9 |
| 20260905063808 | 65 | 140 | 1.7 | 3.5 | 0.00 | 0.00 | 0.00 | 99 | 1018.0 |
| 20260905063305 | 65 | 79 | 4.3 | 8.7 | 0.00 | 0.00 | 0.00 | 99 | 1017.9 |
| 20260905062801 | 65 | 115 | 0.9 | 3.5 | 0.00 | 0.00 | 0.00 | 99 | 1018.1 |
| 20260905062255 | 66 | 92 | 5.2 | 7.0 | 0.00 | 0.00 | 0.00 | 99 | 1018.2 |
| 20260905061750 | 66 | 71 | 1.7 | 7.0 | 0.00 | 0.00 | 0.00 | 99 | 1018.0 |
| 20260905061249 | 66 | 90 | 2.6 | 3.5 | 0.00 | 0.00 | 0.00 | 99 | 1018.1 |
| 20260905060743 | 66 | 157 | 2.6 | 6.1 | 0.00 | 0.00 | 0.00 | 99 | 1018.1 |
| 20260905060241 | 66 | 148 | 1.7 | 8.7 | 0.00 | 0.00 | 0.00 | 99 | 1018.0 |
| 20260905055739 | 66 | 99 | 3.5 | 5.2 | 0.00 | 0.00 | 0.00 | 99 | 1018.1 |
| 20260905055235 | 66 | 79 | 3.5 | 6.1 | 0.00 | 0.00 | 0.00 | 99 | 1018.3 |
| 20260905054729 | 66 | 94 | 0.9 | 1.7 | 0.00 | 0.00 | 0.00 | 98 | 1018.2 |
| 20260905054226 | 66 | 151 | 1.7 | 3.5 | 0.00 | 0.00 | 0.00 | 98 | 1018.1 |
| 20260905053725 | 66 | 97 | 5.2 | 6.1 | 0.00 | 0.00 | 0.00 | 99 | 1018.1 |
| 20260905053220 | 66 | 116 | 2.6 | 6.1 | 0.00 | 0.00 | 0.00 | 98 | 1018.2 |
| 20260905052714 | 67 | 109 | 0.9 | 1.7 | 0.00 | 0.00 | 0.00 | 99 | 1018.2 |
| 20260905052209 | 67 | 114 | 2.6 | 5.2 | 0.00 | 0.00 | 0.00 | 99 | 1018.2 |
| 20260905051709 | 67 | 79 | 1.7 | 3.5 | 0.00 | 0.00 | 0.00 | 99 | 1018.1 |
| 20260905051206 | 67 | 191 | 0.9 | 1.7 | 0.00 | 0.00 | 0.00 | 98 | 1017.9 |
| 20260905050702 | 67 | 111 | 0.9 | 2.6 | 0.00 | 0.00 | 0.00 | 98 | 1017.8 |
| 20260905050159 | 67 | 90 | 4.3 | 6.1 | 0.00 | 0.00 | 0.00 | 98 | 1017.6 |
| 20260905045653 | 68 | 87 | 3.5 | 5.2 | 0.00 | 0.00 | 0.00 | 98 | 1017.6 |
| 20260905045148 | 68 | 112 | 2.6 | 5.2 | 0.00 | 0.00 | 0.00 | 98 | 1017.6 |
| 20260905044648 | 68 | 71 | 4.3 | 7.0 | 0.00 | 0.00 | 0.00 | 98 | 1017.8 |
| 20260905044143 | 68 | 113 | 1.7 | 5.2 | 0.00 | 0.00 | 0.00 | 98 | 1017.6 |
| 20260905043642 | 68 | 116 | 4.3 | 6.1 | 0.00 | 0.00 | 0.00 | 98 | 1017.6 |
| 20260905043137 | 68 | 105 | 2.6 | 5.2 | 0.00 | 0.00 | 0.00 | 98 | 1017.6 |
| 20260905042636 | 68 | 75 | 1.7 | 6.1 | 0.00 | 0.00 | 0.00 | 98 | 1017.8 |
| 20260905042131 | 68 | 97 | 1.7 | 6.1 | 0.00 | 0.00 | 0.00 | 97 | 1017.7 |
| 20260905041627 | 68 | 104 | 0.9 | 5.2 | 0.00 | 0.00 | 0.00 | 97 | 1017.9 |
| 20260905041123 | 68 | 75 | 1.7 | 5.2 | 0.00 | 0.00 | 0.00 | 97 | 1017.8 |
| 20260905040622 | 69 | 112 | 3.5 | 7.0 | 0.00 | 0.00 | 0.00 | 97 | 1017.8 |
| 20260905040121 | 69 | 82 | 2.6 | 3.5 | 0.00 | 0.00 | 0.00 | 97 | 1017.9 |
| 20260905035616 | 69 | 67 | 0.0 | 3.5 | 0.00 | 0.00 | 0.00 | 96 | 1017.8 |
| 20260905035113 | 69 | 103 | 2.6 | 3.5 | 0.00 | 0.00 | 0.00 | 96 | 1017.8 |
| 20260905034608 | 69 | 1 | 3.5 | 6.1 | 0.00 | 0.00 | 0.00 | 96 | 1017.8 |
| 20260905034102 | 69 | 76 | 0.9 | 3.5 | 0.00 | 0.00 | 0.00 | 96 | 1017.8 |
| 20260905033601 | 70 | 130 | 2.6 | 2.6 | 0.00 | 0.00 | 0.00 | 96 | 1017.8 |
| 20260905033058 | 70 | 78 | 3.5 | 5.2 | 0.00 | 0.00 | 0.00 | 95 | 1017.6 |
| 20260905032557 | 70 | 65 | 0.9 | 6.1 | 0.00 | 0.00 | 0.00 | 95 | 1017.6 |
| 20260905032052 | 70 | 74 | 2.6 | 3.5 | 0.00 | 0.00 | 0.00 | 95 | 1017.6 |
| 20260905031548 | 70 | 125 | 0.9 | 2.6 | 0.00 | 0.00 | 0.00 | 95 | 1017.5 |
| 20260905031048 | 71 | 65 | 1.7 | 2.6 | 0.00 | 0.00 | 0.00 | 95 | 1017.5 |
| 20260905030543 | 71 | 105 | 0.9 | 7.0 | 0.00 | 0.00 | 0.00 | 94 | 1017.6 |
| 20260905030043 | 71 | 35 | 1.7 | 2.6 | 0.00 | 0.00 | 0.00 | 94 | 1017.4 |
| 20260905025538 | 71 | 100 | 0.9 | 3.5 | 0.00 | 0.00 | 0.00 | 94 | 1017.4 |
| 20260905025035 | 72 | 71 | 1.7 | 3.5 | 0.00 | 0.00 | 0.00 | 93 | 1017.2 |
| 20260905024530 | 72 | 51 | 3.5 | 5.2 | 0.00 | 0.00 | 0.00 | 93 | 1017.2 |
| 20260905024025 | 72 | 135 | 0.0 | 1.7 | 0.00 | 0.00 | 0.00 | 93 | 1017.4 |
| 20260905023520 | 72 | 90 | 0.9 | 7.0 | 0.00 | 0.00 | 0.00 | 92 | 1017.1 |
| 20260905023015 | 73 | 104 | 3.5 | 6.1 | 0.00 | 0.00 | 0.00 | 92 | 1017.2 |
| 20260905022515 | 73 | 86 | 0.9 | 5.2 | 0.00 | 0.00 | 0.00 | 91 | 1016.9 |
| 20260905022010 | 73 | 90 | 3.5 | 6.1 | 0.00 | 0.00 | 0.00 | 91 | 1016.7 |
| 20260905021509 | 73 | 74 | 1.7 | 5.2 | 0.00 | 0.00 | 0.00 | 90 | 1016.7 |
| 20260905021005 | 74 | 47 | 3.5 | 3.5 | 0.00 | 0.00 | 0.00 | 90 | 1016.9 |
| 20260905020459 | 74 | 84 | 2.6 | 2.6 | 0.00 | 0.00 | 0.00 | 89 | 1016.6 |
| 20260905015953 | 74 | 77 | 0.0 | 0.9 | 0.00 | 0.00 | 0.00 | 88 | 1016.7 |
| 20260905015451 | 75 | 117 | 1.7 | 2.6 | 0.00 | 0.00 | 0.00 | 87 | 1016.5 |
| 20260905014945 | 75 | 85 | 0.9 | 2.6 | 0.00 | 0.00 | 0.00 | 87 | 1016.3 |
| 20260905014441 | 75 | 76 | 1.7 | 3.5 | 0.00 | 0.00 | 0.00 | 87 | 1016.3 |
| 20260905013936 | 75 | 145 | 0.9 | 2.6 | 0.00 | 0.00 | 0.00 | 86 | 1016.2 |
| 20260905013433 | 75 | 88 | 2.6 | 3.5 | 0.00 | 0.00 | 0.00 | 86 | 1016.2 |
| 20260905012933 | 75 | 52 | 4.3 | 5.2 | 0.00 | 0.00 | 0.00 | 86 | 1016.1 |
| 20260905012428 | 75 | 90 | 0.0 | 0.9 | 0.00 | 0.00 | 0.00 | 86 | 1015.9 |
| 20260905011925 | 75 | 62 | 1.7 | 1.7 | 0.00 | 0.00 | 0.00 | 86 | 1016.0 |
| 20260905011421 | 75 | 93 | 0.9 | 0.9 | 0.00 | 0.00 | 0.00 | 86 | 1016.1 |
| 20260905010916 | 76 | 145 | 0.0 | 0.0 | 0.00 | 0.00 | 0.00 | 85 | 1016.3 |
| 20260905010411 | 76 | 90 | 0.9 | 1.7 | 0.00 | 0.00 | 0.00 | 84 | 1016.2 |
| 20260905005907 | 77 | 90 | 0.9 | 3.5 | 0.00 | 0.00 | 0.00 | 83 | 1016.3 |
| 20260905005403 | 77 | 54 | 1.7 | 2.6 | 0.00 | 0.00 | 0.00 | 83 | 1016.1 |
| 20260905004857 | 77 | 144 | 0.9 | 2.6 | 0.00 | 0.00 | 0.00 | 82 | 1015.9 |
| 20260905004352 | 77 | 121 | 0.0 | 2.6 | 0.00 | 0.00 | 0.00 | 82 | 1016.1 |
| 20260905003847 | 77 | 149 | 0.0 | 1.7 | 0.00 | 0.00 | 0.00 | 82 | 1015.9 |
| 20260905003343 | 78 | 93 | 0.9 | 1.7 | 0.00 | 0.00 | 0.00 | 81 | 1016.2 |
| 20260905002838 | 78 | 91 | 0.9 | 2.6 | 0.00 | 0.00 | 0.00 | 81 | 1016.0 |
| 20260905002338 | 78 | 127 | 0.0 | 0.9 | 0.00 | 0.00 | 0.00 | 81 | 1016.0 |
| 20260905001832 | 78 | 21 | 0.9 | 2.6 | 0.00 | 0.00 | 0.00 | 80 | 1016.0 |
| 20260905001327 | 79 | 151 | 0.0 | 0.9 | 0.00 | 0.00 | 0.00 | 80 | 1016.1 |
| 20260905000823 | 79 | 137 | 0.9 | 1.7 | 0.00 | 0.00 | 0.00 | 79 | 1016.2 |
| 20260905000318 | 79 | 119 | 0.0 | 0.9 | 0.00 | 0.00 | 0.00 | 78 | 1015.8 |
| 20260904235812 | 80 | 139 | 0.0 | 1.7 | 0.00 | 0.00 | 0.00 | 77 | 1016.0 |
| 20260904235307 | 80 | 113 | 0.9 | 1.7 | 0.00 | 0.00 | 0.00 | 76 | 1015.9 |
| 20260904234802 | 81 | 112 | 0.9 | 2.6 | 0.00 | 0.00 | 0.00 | 75 | 1015.9 |
| 20260904234252 | 82 | 109 | 0.9 | 2.6 | 0.00 | 0.00 | 0.00 | 74 | 1015.9 |
| 20260904233747 | 82 | 82 | 0.9 | 2.6 | 0.00 | 0.00 | 0.00 | 72 | 1015.9 |
| 20260904233238 | 83 | 81 | 2.6 | 3.5 | 0.00 | 0.00 | 0.00 | 71 | 1015.9 |
| 20260904232734 | 83 | 147 | 2.6 | 3.5 | 0.00 | 0.00 | 0.00 | 71 | 1015.8 |
| 20260904232230 | 83 | 91 | 1.7 | 5.2 | 0.00 | 0.00 | 0.00 | 70 | 1015.7 |
| 20260904231725 | 84 | 28 | 2.6 | 3.5 | 0.00 | 0.00 | 0.00 | 69 | 1015.7 |
| 20260904231220 | 84 | 45 | 1.7 | 3.5 | 0.00 | 0.00 | 0.00 | 70 | 1015.6 |
| 20260904230715 | 84 | 57 | 2.6 | 3.5 | 0.00 | 0.00 | 0.00 | 68 | 1015.7 |
| 20260904230209 | 84 | 98 | 1.7 | 5.2 | 0.00 | 0.00 | 0.00 | 68 | 1015.6 |
| 20260904225708 | 85 | 54 | 4.3 | 7.0 | 0.00 | 0.00 | 0.00 | 67 | 1015.5 |
| 20260904225202 | 84 | 121 | 0.9 | 2.6 | 0.00 | 0.00 | 0.00 | 68 | 1015.5 |
| 20260904224656 | 84 | 88 | 1.7 | 3.5 | 0.00 | 0.00 | 0.00 | 68 | 1015.5 |
| 20260904224151 | 85 | 171 | 1.7 | 6.1 | 0.00 | 0.00 | 0.00 | 66 | 1015.7 |
| 20260904223650 | 85 | 135 | 6.1 | 7.0 | 0.00 | 0.00 | 0.00 | 66 | 1015.7 |
| 20260904223146 | 85 | 95 | 3.5 | 3.5 | 0.00 | 0.00 | 0.00 | 65 | 1015.6 |
| 20260904222642 | 84 | 75 | 1.7 | 5.2 | 0.00 | 0.00 | 0.00 | 67 | 1015.5 |
| 20260904222137 | 85 | 99 | 4.3 | 6.1 | 0.00 | 0.00 | 0.00 | 67 | 1015.5 |
| 20260904221636 | 85 | 8 | 3.5 | 6.1 | 0.00 | 0.00 | 0.00 | 67 | 1015.6 |
| 20260904221131 | 85 | 80 | 3.5 | 7.8 | 0.00 | 0.00 | 0.00 | 67 | 1015.4 |
| 20260904220626 | 85 | 83 | 2.6 | 5.2 | 0.00 | 0.00 | 0.00 | 64 | 1015.5 |
| 20260904220121 | 86 | 91 | 3.5 | 6.1 | 0.00 | 0.00 | 0.00 | 65 | 1015.6 |
| 20260904215616 | 85 | 26 | 3.5 | 6.1 | 0.00 | 0.00 | 0.00 | 65 | 1015.4 |
| 20260904215112 | 85 | 80 | 1.7 | 6.1 | 0.00 | 0.00 | 0.00 | 68 | 1015.5 |
| 20260904214607 | 86 | 52 | 1.7 | 2.6 | 0.00 | 0.00 | 0.00 | 65 | 1015.4 |
| 20260904214103 | 86 | 86 | 1.7 | 3.5 | 0.00 | 0.00 | 0.00 | 65 | 1015.5 |
| 20260904213600 | 85 | 266 | 0.9 | 3.5 | 0.00 | 0.00 | 0.00 | 66 | 1015.4 |
| 20260904213057 | 86 | 55 | 5.2 | 6.1 | 0.00 | 0.00 | 0.00 | 64 | 1015.5 |
| 20260904212556 | 85 | 209 | 0.9 | 3.5 | 0.00 | 0.00 | 0.00 | 66 | 1015.6 |
| 20260904212052 | 86 | 98 | 4.3 | 6.1 | 0.00 | 0.00 | 0.00 | 67 | 1015.7 |
| 20260904211551 | 85 | 55 | 3.5 | 5.2 | 0.00 | 0.00 | 0.00 | 68 | 1015.6 |
| 20260904211047 | 85 | 139 | 1.7 | 2.6 | 0.00 | 0.00 | 0.00 | 68 | 1015.7 |
| 20260904210546 | 86 | 328 | 2.6 | 5.2 | 0.00 | 0.00 | 0.00 | 67 | 1015.5 |
| 20260904210042 | 85 | 103 | 2.6 | 3.5 | 0.00 | 0.00 | 0.00 | 67 | 1015.4 |
| 20260904205536 | 86 | 107 | 1.7 | 2.6 | 0.00 | 0.00 | 0.00 | 68 | 1015.6 |
| 20260904205033 | 86 | 6 | 1.7 | 3.5 | 0.00 | 0.00 | 0.00 | 69 | 1015.4 |
| 20260904204529 | 85 | 358 | 1.7 | 2.6 | 0.00 | 0.00 | 0.00 | 68 | 1015.5 |
| 20260904204025 | 85 | 41 | 0.9 | 1.7 | 0.00 | 0.00 | 0.00 | 68 | 1015.6 |
| 20260904203520 | 85 | 188 | 0.0 | 5.2 | 0.00 | 0.00 | 0.00 | 70 | 1015.5 |
| 20260904203017 | 84 | 76 | 2.6 | 6.1 | 0.00 | 0.00 | 0.00 | 70 | 1015.6 |
| 20260904202512 | 85 | 17 | 2.6 | 5.2 | 0.00 | 0.00 | 0.00 | 69 | 1015.5 |
| 20260904202008 | 85 | 42 | 1.7 | 8.7 | 0.00 | 0.00 | 0.00 | 74 | 1015.7 |
| 20260904201503 | 85 | 14 | 1.7 | 2.6 | 0.00 | 0.00 | 0.00 | 72 | 1015.7 |
| 20260904200959 | 84 | 74 | 1.7 | 5.2 | 0.00 | 0.00 | 0.00 | 71 | 1015.7 |
| 20260904200457 | 84 | 333 | 1.7 | 7.0 | 0.00 | 0.00 | 0.00 | 73 | 1015.6 |
| 20260904195952 | 84 | 103 | 1.7 | 2.6 | 0.00 | 0.00 | 0.00 | 71 | 1015.6 |
| 20260904195450 | 83 | 299 | 1.7 | 5.2 | 0.00 | 0.00 | 0.00 | 74 | 1015.6 |
| 20260904194949 | 84 | 86 | 1.7 | 2.6 | 0.00 | 0.00 | 0.00 | 72 | 1015.5 |
| 20260904194444 | 82 | 32 | 0.9 | 5.2 | 0.00 | 0.00 | 0.00 | 76 | 1015.5 |
| 20260904193939 | 82 | 66 | 1.7 | 2.6 | 0.00 | 0.00 | 0.00 | 75 | 1015.5 |
| 20260904193435 | 82 | 1 | 3.5 | 6.1 | 0.00 | 0.00 | 0.00 | 77 | 1015.3 |
| 20260904192930 | 82 | 84 | 2.6 | 5.2 | 0.00 | 0.00 | 0.00 | 76 | 1015.4 |
| 20260904192425 | 82 | 223 | 0.0 | 5.2 | 0.00 | 0.00 | 0.00 | 78 | 1015.7 |
| 20260904191922 | 81 | 53 | 3.5 | 5.2 | 0.00 | 0.00 | 0.00 | 79 | 1015.5 |
| 20260904191418 | 81 | 131 | 3.5 | 6.1 | 0.00 | 0.00 | 0.00 | 79 | 1015.8 |
| 20260904190914 | 81 | 155 | 1.7 | 5.2 | 0.00 | 0.00 | 0.00 | 79 | 1015.6 |
| 20260904190409 | 80 | 151 | 1.7 | 5.2 | 0.00 | 0.00 | 0.00 | 81 | 1015.6 |
| 20260904185906 | 81 | 340 | 0.9 | 5.2 | 0.00 | 0.00 | 0.00 | 80 | 1015.9 |
| 20260904185401 | 80 | 65 | 0.9 | 6.1 | 0.00 | 0.00 | 0.00 | 82 | 1015.9 |
| 20260904184901 | 79 | 121 | 3.5 | 5.2 | 0.00 | 0.00 | 0.00 | 81 | 1015.7 |
| 20260904184356 | 79 | 19 | 1.7 | 3.5 | 0.00 | 0.00 | 0.00 | 82 | 1015.7 |
| 20260904183851 | 78 | 40 | 3.5 | 5.2 | 0.00 | 0.00 | 0.00 | 83 | 1015.7 |
| 20260904183346 | 78 | 22 | 4.3 | 6.1 | 0.00 | 0.00 | 0.00 | 84 | 1015.9 |